Regional Weather Roundup
Issued by NWS Charleston, SC

Current Version | Previous Version | Graphics & Text | Print | Product List | Glossary On
Versions: 1 2 3 4 5 6 7 8 9 10 11 12 13 14 15 16 17 18 19 20 21 22 23 24 25 26 27 28 29 30 31 32 33 34 35 36 37 38 39 40 41 42 43 44 45 46 47 48 49 50
000
ASUS42 KCHS 200127
RWRCHS

REGIONAL WEATHER ROUNDUP
NATIONAL WEATHER SERVICE CHARLESTON SC
900 PM EDT THU OCT 19 2017

NOTE: "FAIR" INDICATES FEW OR NO CLOUDS BELOW 12,000 FEET WITH NO
SIGNIFICANT WEATHER AND/OR OBSTRUCTIONS TO VISIBILITY.

NOT ALL STATIONS ARE QUALITY CONTROLLED. USE DATA WITH CAUTION...
ESPECIALLY DEWPOINT OBSERVATIONS.

SCZ027-030-031-034>040-042>050-200200-
...SOUTHEAST SOUTH CAROLINA...

CITY           SKY/WX    TMP DP  RH WIND       PRES   REMARKS
N CHARLESTON   CLEAR     62  58  86 N3        30.21R
WATERFRONT PRK   N/A     72  63  73 VRB3      30.05R
JOHNS ISLAND   FAIR      64  61  88 CALM      30.21S
PINOPOLIS        N/A     73  63  68 VRB3      30.13R
MONCKS CORNER  FAIR      57  57 100 CALM      30.21S
SUMMERVILLE    FAIR      59  57  94 CALM      30.23R
BEAUFORT MCAS  CLEAR     66  62  87 VRB3      30.21R
BEAUFORT ARPT  FAIR      64  63  94 CALM      30.21R
HILTON HEAD IS CLEAR     70  64  83 NE5       30.22R
WALTERBORO     CLEAR     55  54  94 CALM      30.23R
ALLENDALE        N/A     59  55  88 CALM        N/A

...SOUTHERN MIDLANDS AND PEE DEE...

CITY           SKY/WX    TMP DP  RH WIND       PRES   REMARKS
GEORGETOWN     FAIR      59  57  94 CALM      30.22R
KINGSTREE      FAIR      55  54  94 CALM      30.22S
ORANGEBURG     CLEAR     59  54  83 CALM      30.23R
BARNWELL         N/A     59  55  88 CALM      30.23R
AIKEN          FAIR      54  48  82 CALM      30.27S
MANNING        FOG       55  54  94 MISG      30.23R VSB<1/4
COLUMBIA       CLEAR     60  55  83 CALM      30.22S
SUMTER         CLEAR     59  51  73 CALM      30.20S
FLORENCE       CLEAR     58  55  90 CALM      30.23R
MYRTLE BEACH   CLEAR     64  62  93 CALM      30.22R
N MYRTLE BEACH CLEAR     63  62  97 CALM      30.20R

$$

GAZ063-065-086>088-099>101-113>116-118-119-134>141-150-200200-
...SOUTHEAST GEORGIA...

CITY           SKY/WX    TMP DP  RH WIND       PRES   REMARKS
SAVANNAH ARPT  CLEAR     65  61  87 CALM      30.21R
HUNTER AAF     CLEAR     69  62  77 E3        30.18R
FORT STEWART   CLEAR     64  60  87 CALM      30.18S
STATESBORO     CLEAR     59  54  83 CALM      30.22S
SYLVANIA       CLEAR     59  58  97 CALM      30.23R
CLAXTON        FAIR      61  60  97 CALM      30.21S

...CSRA...CENTRAL AND FAR SOUTHEAST GEORGIA...

CITY           SKY/WX    TMP DP  RH WIND       PRES   REMARKS
THOMSON        CLEAR     53  50  90 CALM      30.29S
AUGUSTA-BUSH   CLEAR     58  52  80 CALM      30.22R
AUGUSTA-DANIEL CLEAR     68  47  46 N8        30.23R
SWAINSBORO     FAIR      57  54  88 CALM      30.23R
VIDALIA        CLEAR     63  55  77 CALM      30.22R
EASTMAN        FAIR      59  59  99 CALM      30.24R
HAZLEHURST     FAIR      67  53  61 CALM      30.20R
ALMA           CLEAR     64  60  87 CALM      30.19R
WAYCROSS       CLEAR     67  60  77 E3        30.20R
JESUP          NOT AVBL
BAXLEY         FAIR      61  61 100 CALM      30.19S
BRUNSWICK      CLEAR     63  59  88 CALM      30.20R
SAINT SIMONS   CLEAR     73  62  68 NE8       30.18S

$$

SCZ027-028-034-036>038-045-046-048>050-GAZ119-141-200200-
...LAKE AND SUPPLEMENTAL COASTAL OBSERVATIONS...

STATION/POSITION TIME  TEMP    WIND        PRES    WAVE   SWELL
                       AIR SEA DIR/SP/G            HT/PER HT/PER/DIR
                 (UTC) (F)     (DEG/KT/KT) (MB)    (FT/S) (FT/S/D)
WINYAH BAY       0045   64     320/  4     1023.0S
LAKE MURRAY      0020   65      CALM  /  3 1022.7
ACE BASIN NERRS  0045   65        CALM     1023.0S
FORT PULASKI     0100   72 73   40/  5/  6 1023.0
SAPELO ISLAND    0100   71      50/  4     1022.0

$$

ANZ835-935-AMZ111-154-330-350-352-354-370-450-454-472-200200-
...C-MAN AND BUOY OBSERVATIONS...

STATION/POSITION TIME  TEMP    WIND        PRES    WAVE   SWELL
                       AIR SEA DIR/SP/G            HT/PER HT/PER/DIR
                 (UTC) (F)     (DEG/KT/KT) (MB)    (FT/S) (FT/S/D)
BUOY 41004       0100   76 80   30/ 12/ 16 1021.5
BUOY 41008       0050   76 77   60/ 16/ 19 1021.4R   5/ 7   3/120/ 9
FOLLY BEACH CMAN 0000   72      30/  7/  8 1023.2R
CAPERS NEARSHORE 0108   70 73   60/  8/ 12 1022.4R
FRIPP NEARSHORE  0108   74      30/ 10/ 14   N/A


STATION/POSITION TIME  TEMP    WIND        PRES    WAVE   SWELL
                       AIR SEA DIR/SP/G            HT/PER HT/PER/DIR
                 (UTC) (F)     (DEG/KT/KT) (MB)    (FT/S) (FT/S/D)
5E ST. MARYS GA  0100      77                N/A     6/ 6   2/100/11
FRYING PAN BUOY  0100   75 76   40/ 10/ 14 1022.0
BUOY 41025       0050   74 81   10/  6/ 10 1022.1R   4/ 9   3/110/ 9
CAPE LOOKOUT NC  0100   71      10/  3/  3 1022.2R
BUOY 41002       0050   77 80   30/ 17/ 21 1019.0R   6/ 8   3/ 80/ 9
BUOY 41010       NOT AVBL
ST AUGUSTINE FL  0100   76 78   50/ 18/ 20 1020.7R


$$




USA.gov is the U.S. government's official web portal to all federal, state and local government web resources and services.